Date String (YYYY-MM-DD hh:mm:ss) UTC,Instrument flags,Ambient pressure (hPa),Sample flow (lpm),Bypass flow (lpm),Sample temperature (°C),Ambient temperature (°C),ASC tube jacket temperature (°C),LED temperature (°C),Box temperature (°C),Sample RH (%),Span deviation,Mass concentration (μg/m³),Mass concentration (μg/m³),Mass concentration (μg/m³)
DateTimeUTC,F1_M11,P_M11,Q1_M11,Q2_M11,T1_M11,T2_M11,T3_M11,T4_M11,T5_M11,U1_M11,ZSPAN_M11,X0_M11,X2_M11,X1_M11
2022-10-19 02:00:00,,0833.0,5.00,0.00,30.1,28.6,00.0,39.0,31.9,10.6,0000.0,0012.32,0003.84,0003.15
2022-10-19 02:01:00,,0833.0,5.00,0.00,30.1,28.6,00.0,39.0,31.9,10.7,0000.0,0011.56,0003.84,0003.15
2022-10-19 02:02:00,,0833.0,5.01,0.00,30.1,28.6,00.0,39.0,31.9,10.6,0000.0,0010.45,0003.83,0003.13
2022-10-19 02:03:00,,0832.9,4.99,0.00,30.1,28.6,00.0,39.0,31.9,10.6,0000.0,0010.62,0003.79,0003.12
2022-10-19 02:04:00,,0832.9,5.00,0.00,30.1,28.6,00.0,39.0,31.9,10.6,0000.0,0010.45,0003.80,0003.13
2022-10-19 02:05:00,,0832.8,5.00,0.00,30.1,28.6,00.0,38.9,31.9,10.6,0000.0,0010.46,0003.85,0003.14
2022-10-19 02:06:00,,0832.8,4.99,0.00,30.1,28.6,00.0,38.9,31.9,10.5,0000.0,0010.45,0003.86,0003.14
2022-10-19 02:07:00,,0832.8,5.01,0.00,30.1,28.6,00.0,38.9,31.9,10.6,0000.0,0010.52,0003.85,0003.16
2022-10-19 02:08:00,,0832.8,5.00,0.00,30.1,28.6,00.0,39.0,31.9,10.6,0000.0,0010.54,0003.89,0003.17
2022-10-19 02:09:00,,0832.8,5.00,0.00,30.1,28.6,00.0,38.9,31.9,10.5,0000.0,0010.50,0003.91,0003.17
2022-10-19 02:10:00,,0832.8,5.00,0.00,30.1,28.6,00.0,39.0,31.9,10.6,0000.0,0009.32,0003.88,0003.17
2022-10-19 02:11:00,,0832.8,5.00,0.00,30.1,28.6,00.0,39.0,31.9,10.6,0000.0,0009.02,0003.89,0003.17
2022-10-19 02:12:00,,0832.9,5.01,0.00,30.1,28.6,00.0,39.0,31.9,10.6,0000.0,0009.52,0003.91,0003.18
2022-10-19 02:13:00,,0832.8,4.99,0.00,30.1,28.6,00.0,39.0,31.9,10.5,0000.0,0010.57,0003.93,0003.18
2022-10-19 02:14:00,,0832.8,5.03,0.00,30.1,28.6,00.0,39.0,31.9,10.5,0000.0,0010.66,0003.91,0003.19
2022-10-19 02:15:00,,0832.9,4.98,0.00,30.1,28.6,00.0,38.9,31.9,10.5,0000.0,0010.05,0003.88,0003.18
2022-10-19 02:16:00,,0833.0,5.01,0.00,30.1,28.6,00.0,39.0,31.8,10.5,0000.0,0009.71,0003.81,0003.18
2022-10-19 02:17:00,,0833.0,4.99,0.00,30.1,28.5,00.0,39.0,31.8,10.5,0000.0,0009.69,0003.80,0003.19
2022-10-19 02:18:00,,0833.0,5.01,0.00,30.1,28.6,00.0,39.0,31.9,10.5,0000.0,0009.66,0003.80,0003.19
2022-10-19 02:19:00,,0833.0,5.00,0.00,30.1,28.6,00.0,39.0,31.9,10.5,0000.0,0009.89,0003.80,0003.20
2022-10-19 02:20:00,,0833.0,4.99,0.00,30.1,28.5,00.0,39.0,31.8,10.5,0000.0,0010.48,0003.78,0003.20
2022-10-19 02:21:00,,0833.0,5.00,0.00,30.1,28.5,00.0,39.0,31.8,10.5,0000.0,0010.59,0003.81,0003.20
2022-10-19 02:22:00,,0832.9,4.98,0.00,30.1,28.5,00.0,38.9,31.8,10.5,0000.0,0010.50,0003.79,0003.21
2022-10-19 02:23:00,,0833.0,5.00,0.00,30.1,28.5,00.0,38.9,31.8,10.5,0000.0,0010.10,0003.72,0003.21
2022-10-19 02:24:00,,0833.0,5.00,0.00,30.1,28.6,00.0,38.9,31.9,10.5,0000.0,0009.40,0003.74,0003.23
2022-10-19 02:25:00,,0833.0,4.98,0.00,30.1,28.5,00.0,38.9,31.8,10.5,0000.0,0009.85,0003.76,0003.23
2022-10-19 02:26:00,,0833.0,5.00,0.00,30.1,28.5,00.0,38.9,31.8,10.4,0000.0,0010.90,0003.79,0003.23
2022-10-19 02:27:00,,0833.0,5.01,0.00,30.1,28.5,00.0,38.9,31.8,10.5,0000.0,0010.73,0003.84,0003.23
2022-10-19 02:28:00,,0833.0,4.99,0.00,30.1,28.5,00.0,38.9,31.9,10.5,0000.0,0010.96,0003.81,0003.23
2022-10-19 02:29:00,,0833.0,5.01,0.00,30.1,28.5,00.0,38.9,31.8,10.5,0000.0,0010.90,0003.79,0003.23
2022-10-19 02:30:00,,0833.0,5.00,0.00,30.1,28.5,00.0,38.9,31.8,10.5,0000.0,0010.81,0003.80,0003.21
2022-10-19 02:31:00,,0833.0,4.99,0.00,30.1,28.5,00.0,38.9,31.8,10.5,0000.0,0010.86,0003.77,0003.22
2022-10-19 02:32:00,,0833.0,5.01,0.00,30.1,28.5,00.0,38.9,31.9,10.5,0000.0,0011.09,0003.75,0003.22
2022-10-19 02:33:00,,0833.0,5.00,0.00,30.1,28.5,00.0,38.9,31.8,10.5,0000.0,0011.43,0003.77,0003.22
2022-10-19 02:34:00,,0833.1,5.00,0.00,30.1,28.5,00.0,38.9,31.8,10.5,0000.0,0011.51,0003.81,0003.22
2022-10-19 02:35:00,,0833.0,5.02,0.00,30.1,28.5,00.0,38.9,31.8,10.5,0000.0,0011.21,0003.83,0003.21
2022-10-19 02:36:00,,0833.0,4.98,0.00,30.1,28.5,00.0,38.9,31.9,10.5,0000.0,0010.48,0003.83,0003.21
2022-10-19 02:37:00,,0833.1,5.01,0.00,30.1,28.5,00.0,38.9,31.8,10.5,0000.0,0009.95,0003.82,0003.20
2022-10-19 02:38:00,,0833.0,5.00,0.00,30.0,28.5,00.0,38.9,31.8,10.5,0000.0,0010.06,0003.82,0003.19
2022-10-19 02:39:00,,0833.0,5.00,0.00,30.0,28.5,00.0,38.9,31.8,10.6,0000.0,0009.76,0003.81,0003.18
2022-10-19 02:40:00,,0833.1,5.00,0.00,30.1,28.5,00.0,38.9,31.8,10.5,0000.0,0009.82,0003.79,0003.17
2022-10-19 02:41:00,,0833.1,4.99,0.00,30.0,28.5,00.0,38.9,31.8,10.5,0000.0,0009.70,0003.74,0003.16
2022-10-19 02:42:00,,0833.1,5.01,0.00,30.0,28.4,00.0,38.9,31.8,10.5,0000.0,0009.14,0003.75,0003.15
2022-10-19 02:43:00,,0833.1,5.01,0.00,30.0,28.4,00.0,38.9,31.8,10.5,0000.0,0008.82,0003.75,0003.15
2022-10-19 02:44:00,,0833.1,4.98,0.00,30.0,28.4,00.0,38.9,31.8,10.5,0000.0,0008.57,0003.74,0003.13
2022-10-19 02:45:00,,0833.0,5.01,0.00,30.0,28.4,00.0,38.9,31.7,10.4,0000.0,0008.71,0003.72,0003.13
2022-10-19 02:46:00,,0833.1,5.01,0.00,30.0,28.4,00.0,38.9,31.7,10.4,0000.0,0008.98,0003.73,0003.12
2022-10-19 02:47:00,,0833.0,5.00,0.00,30.0,28.4,00.0,38.9,31.7,10.4,0000.0,0009.06,0003.71,0003.10
2022-10-19 02:48:00,,0833.1,4.99,0.00,30.0,28.4,00.0,38.9,31.8,10.4,0000.0,0008.54,0003.71,0003.10
2022-10-19 02:49:00,,0833.1,5.01,0.00,30.0,28.4,00.0,38.9,31.7,10.4,0000.0,0008.22,0003.69,0003.09
2022-10-19 02:50:00,,0833.0,4.99,0.00,30.0,28.4,00.0,38.9,31.7,10.5,0000.0,0008.29,0003.71,0003.09
2022-10-19 02:51:00,,0833.0,5.00,0.00,30.0,28.4,00.0,38.9,31.7,10.5,0000.0,0008.04,0003.71,0003.09
2022-10-19 02:52:00,,0833.1,5.01,0.00,30.0,28.4,00.0,38.8,31.7,10.5,0000.0,0007.97,0003.72,0003.09
2022-10-19 02:53:00,,0833.0,4.99,0.00,30.0,28.4,00.0,38.8,31.7,10.5,0000.0,0008.47,0003.75,0003.09
2022-10-19 02:54:00,,0833.0,5.00,0.00,30.0,28.4,00.0,38.8,31.7,10.5,0000.0,0008.95,0003.76,0003.08
2022-10-19 02:55:00,,0833.0,5.00,0.00,29.9,28.3,00.0,38.8,31.7,10.5,0000.0,0008.91,0003.75,0003.09
2022-10-19 02:56:00,,0833.0,5.00,0.00,30.0,28.3,00.0,38.8,31.7,10.5,0000.0,0008.90,0003.75,0003.09
2022-10-19 02:57:00,,0833.0,4.99,0.00,29.9,28.3,00.0,38.8,31.6,10.5,0000.0,0008.52,0003.72,0003.08
2022-10-19 02:58:00,,0833.0,5.01,0.00,29.9,28.3,00.0,38.8,31.6,10.5,0000.0,0008.45,0003.70,0003.08
2022-10-19 02:59:00,,0833.0,5.02,0.00,29.9,28.3,00.0,38.8,31.6,10.5,0000.0,0008.53,0003.72,0003.08
